Time,TemperatureF,DewpointF,PressureIn,WindDirection,WindDirectionDegrees,WindSpeedMPH,WindSpeedGustMPH,Humidity,HourlyPrecipIn,Conditions,Clouds,dailyrainin,SoftwareType,DateUTC
2013-02-04 00:04:00,44.2,42.6,30.24,NNW,338,0.0,0.0,94,0.00,,---,0.00,VWS V14.01,2013-02-04 08:04:00,
2013-02-04 00:10:00,44.1,42.5,30.24,NNE,22,1.6,2.2,94,0.00,,---,0.00,VWS V14.01,2013-02-04 08:10:00,
2013-02-04 00:15:00,44.2,42.6,30.24,NW,315,0.0,0.0,94,0.00,,---,0.00,VWS V14.01,2013-02-04 08:15:00,
2013-02-04 00:21:00,44.2,42.6,30.24,NW,315,0.0,0.0,94,0.00,,---,0.00,VWS V14.01,2013-02-04 08:21:00,
2013-02-04 00:26:00,44.2,42.6,30.24,NW,315,0.0,0.0,94,0.00,,---,0.00,VWS V14.01,2013-02-04 08:26:00,
2013-02-04 00:32:00,44.2,42.9,30.24,NW,315,0.0,0.0,95,0.00,,---,0.00,VWS V14.01,2013-02-04 08:32:00,
2013-02-04 00:37:00,44.4,43.1,30.24,NW,315,0.0,0.0,95,0.00,,---,0.00,VWS V14.01,2013-02-04 08:37:00,
2013-02-04 00:43:00,44.6,43.3,30.24,NNW,338,0.0,0.0,95,0.00,,---,0.00,VWS V14.01,2013-02-04 08:43:00,
2013-02-04 00:48:00,45.0,43.6,30.24,WNW,292,0.0,0.0,95,0.00,,---,0.00,VWS V14.01,2013-02-04 08:48:00,
2013-02-04 00:54:00,45.1,44.1,30.24,WNW,292,0.0,0.0,96,0.00,,---,0.00,VWS V14.01,2013-02-04 08:54:00,
2013-02-04 00:59:00,45.5,44.4,30.24,NNE,22,0.0,0.0,96,0.00,,---,0.00,VWS V14.01,2013-02-04 08:59:00,
2013-02-04 01:04:00,45.5,44.4,30.24,North,0,0.0,0.0,96,0.00,,---,0.00,VWS V14.01,2013-02-04 09:04:00,
2013-02-04 01:09:00,45.5,44.4,30.24,NNE,22,0.0,0.0,96,0.00,,---,0.00,VWS V14.01,2013-02-04 09:09:00,
2013-02-04 01:14:00,45.3,44.2,30.24,NW,315,0.0,0.0,96,0.00,,---,0.00,VWS V14.01,2013-02-04 09:14:00,
2013-02-04 01:19:00,45.3,44.0,30.24,NNW,338,0.0,0.0,95,0.00,,---,0.00,VWS V14.01,2013-02-04 09:19:00,
2013-02-04 01:24:00,45.1,43.8,30.24,North,0,0.0,0.0,95,0.00,,---,0.00,VWS V14.01,2013-02-04 09:24:00,
2013-02-04 01:29:00,45.1,43.8,30.24,NNE,22,0.0,0.0,95,0.00,,---,0.00,VWS V14.01,2013-02-04 09:29:00,
2013-02-04 01:34:00,45.1,43.8,30.24,NNE,22,0.0,0.0,95,0.00,,---,0.00,VWS V14.01,2013-02-04 09:34:00,
2013-02-04 01:39:00,45.1,43.8,30.24,North,0,0.0,0.0,95,0.00,,---,0.00,VWS V14.01,2013-02-04 09:39:00,
2013-02-04 01:44:00,45.0,43.9,30.24,NNE,22,0.0,0.0,96,0.00,,---,0.00,VWS V14.01,2013-02-04 09:44:00,
2013-02-04 01:49:00,44.8,43.4,30.24,NNW,338,0.0,0.0,95,0.00,,---,0.00,VWS V14.01,2013-02-04 09:49:00,
2013-02-04 01:54:00,44.2,42.9,30.24,NNE,22,0.0,0.0,95,0.00,,---,0.00,VWS V14.01,2013-02-04 09:54:00,
2013-02-04 01:59:00,44.1,42.7,30.24,WNW,292,0.0,0.0,95,0.00,,---,0.00,VWS V14.01,2013-02-04 09:59:00,
2013-02-04 02:04:00,43.5,42.2,30.24,WNW,292,0.0,0.0,95,0.00,,---,0.00,VWS V14.01,2013-02-04 10:04:00,
2013-02-04 02:09:00,43.3,42.0,30.24,WNW,292,0.0,0.0,95,0.00,,---,0.00,VWS V14.01,2013-02-04 10:09:00,
2013-02-04 02:14:00,42.6,41.0,30.24,WNW,292,0.0,0.0,94,0.00,,---,0.00,VWS V14.01,2013-02-04 10:14:00,
2013-02-04 02:19:00,42.3,40.7,30.24,WNW,292,0.0,0.0,94,0.00,,---,0.00,VWS V14.01,2013-02-04 10:19:00,
2013-02-04 02:24:00,42.1,40.5,30.24,NNW,338,0.0,0.0,94,0.00,,---,0.00,VWS V14.01,2013-02-04 10:24:00,
2013-02-04 02:29:00,41.7,40.1,30.24,NNW,338,0.0,0.0,94,0.00,,---,0.00,VWS V14.01,2013-02-04 10:29:00,
2013-02-04 02:34:00,41.4,40.0,30.24,NNW,338,0.0,0.0,95,0.00,,---,0.00,VWS V14.01,2013-02-04 10:34:00,
2013-02-04 02:39:00,41.2,39.9,30.24,NNW,338,0.0,0.0,95,0.00,,---,0.00,VWS V14.01,2013-02-04 10:39:00,
2013-02-04 02:44:00,41.5,40.5,30.24,NNW,338,0.0,0.0,96,0.00,,---,0.00,VWS V14.01,2013-02-04 10:44:00,
2013-02-04 02:49:00,41.7,40.9,30.24,NNW,338,0.0,0.0,97,0.00,,---,0.00,VWS V14.01,2013-02-04 10:49:00,
2013-02-04 02:54:00,42.3,41.5,30.24,North,0,1.6,1.6,97,0.00,,---,0.00,VWS V14.01,2013-02-04 10:54:00,
2013-02-04 02:59:00,42.4,41.9,30.24,North,0,0.9,1.3,98,0.00,,---,0.00,VWS V14.01,2013-02-04 10:59:00,
2013-02-04 03:04:00,42.6,42.1,30.24,North,0,1.3,2.0,98,0.00,,---,0.00,VWS V14.01,2013-02-04 11:04:00,
2013-02-04 03:09:00,42.8,42.0,30.24,North,0,1.1,1.6,97,0.00,,---,0.00,VWS V14.01,2013-02-04 11:09:00,
2013-02-04 03:14:00,42.8,42.0,30.24,North,0,0.0,0.9,97,0.00,,---,0.00,VWS V14.01,2013-02-04 11:14:00,
2013-02-04 03:19:00,43.0,42.5,30.24,NNE,22,1.3,2.5,98,0.00,,---,0.00,VWS V14.01,2013-02-04 11:19:00,
2013-02-04 03:24:00,43.2,42.6,30.21,North,0,0.0,0.0,98,0.00,,---,0.00,VWS V14.01,2013-02-04 11:24:00,
2013-02-04 03:29:00,43.3,42.8,30.21,North,0,0.0,0.0,98,0.00,,---,0.00,VWS V14.01,2013-02-04 11:29:00,
2013-02-04 03:34:00,43.5,43.0,30.21,NNW,338,0.0,0.0,98,0.00,,---,0.00,VWS V14.01,2013-02-04 11:34:00,
2013-02-04 03:40:00,43.7,43.2,30.21,North,0,0.0,0.0,98,0.00,,---,0.00,VWS V14.01,2013-02-04 11:40:00,
2013-02-04 03:45:00,43.9,43.3,30.21,North,0,0.0,0.0,98,0.00,,---,0.00,VWS V14.01,2013-02-04 11:45:00,
2013-02-04 03:50:00,44.1,43.5,30.21,NNE,22,1.3,1.6,98,0.00,,---,0.00,VWS V14.01,2013-02-04 11:50:00,
2013-02-04 03:55:00,44.1,43.5,30.18,NNW,338,0.0,1.1,98,0.00,,---,0.00,VWS V14.01,2013-02-04 11:55:00,
2013-02-04 04:00:00,44.1,43.5,30.18,NNE,22,0.0,1.6,98,0.00,,---,0.00,VWS V14.01,2013-02-04 12:00:00,
2013-02-04 04:05:00,44.1,43.5,30.18,North,0,0.9,1.1,98,0.00,,---,0.00,VWS V14.01,2013-02-04 12:05:00,
2013-02-04 04:10:00,44.1,43.5,30.21,NNE,22,0.0,2.2,98,0.00,,---,0.00,VWS V14.01,2013-02-04 12:10:00,
2013-02-04 04:15:00,44.1,43.5,30.21,NNE,22,1.3,2.0,98,0.00,,---,0.00,VWS V14.01,2013-02-04 12:15:00,
2013-02-04 04:20:00,44.1,43.5,30.21,North,0,1.1,1.3,98,0.00,,---,0.00,VWS V14.01,2013-02-04 12:20:00,
2013-02-04 04:25:00,44.1,43.5,30.18,North,0,0.0,0.0,98,0.00,,---,0.00,VWS V14.01,2013-02-04 12:25:00,
2013-02-04 04:30:00,43.9,43.3,30.18,North,0,0.0,0.0,98,0.00,,---,0.00,VWS V14.01,2013-02-04 12:30:00,
2013-02-04 04:35:00,43.7,43.2,30.18,NNE,22,0.0,1.6,98,0.00,,---,0.00,VWS V14.01,2013-02-04 12:35:00,
2013-02-04 04:40:00,43.7,43.2,30.21,North,0,0.0,0.9,98,0.00,,---,0.00,VWS V14.01,2013-02-04 12:40:00,
2013-02-04 04:45:00,43.3,42.8,30.21,NNW,338,1.3,2.2,98,0.00,,---,0.00,VWS V14.01,2013-02-04 12:45:00,
2013-02-04 04:50:00,43.0,42.5,30.21,NNW,338,0.0,0.0,98,0.00,,---,0.00,VWS V14.01,2013-02-04 12:50:00,
2013-02-04 04:55:00,43.0,42.5,30.18,NNE,22,0.0,0.0,98,0.00,,---,0.00,VWS V14.01,2013-02-04 12:55:00,
2013-02-04 05:00:00,42.8,42.3,30.18,NNW,338,0.0,0.0,98,0.00,,---,0.00,VWS V14.01,2013-02-04 13:00:00,
2013-02-04 05:05:00,42.8,42.3,30.18,North,0,0.0,2.9,98,0.00,,---,0.00,VWS V14.01,2013-02-04 13:05:00,
2013-02-04 05:10:00,42.8,42.3,30.18,North,0,0.0,0.9,98,0.00,,---,0.00,VWS V14.01,2013-02-04 13:10:00,
2013-02-04 05:15:00,42.8,42.3,30.18,NNE,22,0.0,2.2,98,0.00,,---,0.00,VWS V14.01,2013-02-04 13:15:00,
2013-02-04 05:20:00,42.8,42.3,30.18,NNW,338,0.0,0.0,98,0.00,,---,0.00,VWS V14.01,2013-02-04 13:20:00,
2013-02-04 05:25:00,42.8,42.3,30.21,NNE,22,1.6,2.2,98,0.00,,---,0.00,VWS V14.01,2013-02-04 13:25:00,
2013-02-04 05:30:00,42.6,42.1,30.21,North,0,2.5,3.4,98,0.00,,---,0.00,VWS V14.01,2013-02-04 13:30:00,
2013-02-04 05:35:00,42.6,42.1,30.21,NW,315,0.0,0.0,98,0.00,,---,0.00,VWS V14.01,2013-02-04 13:35:00,
2013-02-04 05:40:00,42.6,42.1,30.21,NNW,338,0.0,0.0,98,0.00,,---,0.00,VWS V14.01,2013-02-04 13:40:00,
2013-02-04 05:45:00,42.6,42.1,30.21,NNE,22,2.0,2.0,98,0.00,,---,0.00,VWS V14.01,2013-02-04 13:45:00,
2013-02-04 05:50:00,42.6,42.1,30.21,NNW,338,0.0,0.0,98,0.00,,---,0.00,VWS V14.01,2013-02-04 13:50:00,
2013-02-04 05:55:00,42.8,42.3,30.21,WNW,292,0.0,0.0,98,0.00,,---,0.00,VWS V14.01,2013-02-04 13:55:00,
2013-02-04 06:00:00,42.8,42.3,30.21,NW,315,0.0,0.0,98,0.00,,---,0.00,VWS V14.01,2013-02-04 14:00:00,
2013-02-04 06:05:00,43.0,42.5,30.21,NNE,22,2.2,2.2,98,0.00,,---,0.00,VWS V14.01,2013-02-04 14:05:00,
2013-02-04 06:10:00,43.2,42.6,30.21,North,0,0.0,1.3,98,0.00,,---,0.00,VWS V14.01,2013-02-04 14:10:00,
2013-02-04 06:15:00,43.3,42.8,30.21,NNW,338,0.0,0.0,98,0.00,,---,0.00,VWS V14.01,2013-02-04 14:15:00,
2013-02-04 06:20:00,43.5,43.0,30.21,North,0,0.0,0.0,98,0.00,,---,0.00,VWS V14.01,2013-02-04 14:20:00,
2013-02-04 06:25:00,43.5,43.0,30.21,NNW,338,0.0,0.0,98,0.00,,---,0.00,VWS V14.01,2013-02-04 14:25:00,
2013-02-04 06:30:00,43.7,43.2,30.21,NNW,338,0.0,0.0,98,0.00,,---,0.00,VWS V14.01,2013-02-04 14:30:00,
2013-02-04 06:35:00,43.7,43.2,30.21,NNW,338,0.0,0.0,98,0.00,,---,0.00,VWS V14.01,2013-02-04 14:35:00,
2013-02-04 06:40:00,43.7,43.2,30.21,NNW,338,0.0,0.0,98,0.00,,---,0.00,VWS V14.01,2013-02-04 14:40:00,
2013-02-04 06:45:00,43.9,43.3,30.21,North,0,0.0,0.0,98,0.00,,---,0.00,VWS V14.01,2013-02-04 14:45:00,
2013-02-04 06:50:00,44.1,43.5,30.21,North,0,0.0,0.0,98,0.00,,---,0.00,VWS V14.01,2013-02-04 14:50:00,
2013-02-04 06:55:00,44.2,43.7,30.21,NNE,22,0.0,0.0,98,0.00,,---,0.00,VWS V14.01,2013-02-04 14:55:00,
2013-02-04 07:00:00,44.6,44.1,30.21,North,0,0.0,0.0,98,0.00,,---,0.00,VWS V14.01,2013-02-04 15:00:00,
2013-02-04 07:05:00,44.6,44.1,30.21,North,0,0.0,0.0,98,0.00,,---,0.00,VWS V14.01,2013-02-04 15:05:00,
2013-02-04 07:10:00,44.6,44.1,30.24,NNE,22,0.0,0.0,98,0.00,,---,0.00,VWS V14.01,2013-02-04 15:10:00,
2013-02-04 07:15:00,44.8,44.2,30.24,North,0,0.0,0.0,98,0.00,,---,0.00,VWS V14.01,2013-02-04 15:15:00,
2013-02-04 07:20:00,45.0,44.4,30.24,North,0,0.0,0.0,98,0.00,,---,0.00,VWS V14.01,2013-02-04 15:20:00,
2013-02-04 07:25:00,45.1,44.6,30.24,West,270,0.0,0.0,98,0.00,,---,0.00,VWS V14.01,2013-02-04 15:25:00,
2013-02-04 07:30:00,45.1,44.6,30.24,West,270,0.0,0.0,98,0.00,,---,0.00,VWS V14.01,2013-02-04 15:30:00,
2013-02-04 07:35:00,45.1,44.6,30.24,SW,225,0.0,0.0,98,0.00,,---,0.00,VWS V14.01,2013-02-04 15:35:00,
2013-02-04 07:40:00,45.3,44.8,30.24,WNW,292,0.0,0.0,98,0.00,,---,0.00,VWS V14.01,2013-02-04 15:40:00,
2013-02-04 07:45:00,45.3,44.8,30.24,SSW,202,0.0,0.0,98,0.00,,---,0.00,VWS V14.01,2013-02-04 15:45:00,
2013-02-04 07:50:00,45.5,45.0,30.24,SSW,202,0.0,0.0,98,0.00,,---,0.00,VWS V14.01,2013-02-04 15:50:00,
2013-02-04 07:55:00,45.7,45.2,30.24,SSW,202,0.0,0.0,98,0.00,,---,0.00,VWS V14.01,2013-02-04 15:55:00,
2013-02-04 08:00:00,45.7,45.2,30.24,WSW,248,0.0,1.1,98,0.00,,---,0.00,VWS V14.01,2013-02-04 16:00:00,
2013-02-04 08:05:00,45.9,45.3,30.24,SSW,202,0.0,0.0,98,0.00,,---,0.00,VWS V14.01,2013-02-04 16:05:00,
2013-02-04 08:10:00,45.9,45.3,30.24,SW,225,0.0,0.0,98,0.00,,---,0.00,VWS V14.01,2013-02-04 16:10:00,
2013-02-04 08:15:00,45.9,45.3,30.24,SSW,202,0.0,0.0,98,0.00,,---,0.00,VWS V14.01,2013-02-04 16:15:00,
2013-02-04 08:20:00,45.9,45.3,30.24,SSE,158,1.6,2.5,98,0.00,,---,0.00,VWS V14.01,2013-02-04 16:20:00,
2013-02-04 08:25:00,46.0,45.5,30.24,WSW,248,0.0,0.0,98,0.00,,---,0.00,VWS V14.01,2013-02-04 16:25:00,
2013-02-04 08:30:00,46.0,45.5,30.24,SSW,202,0.0,2.0,98,0.00,,---,0.00,VWS V14.01,2013-02-04 16:30:00,
2013-02-04 08:35:00,46.2,45.7,30.24,SW,225,0.0,0.0,98,0.00,,---,0.00,VWS V14.01,2013-02-04 16:35:00,
2013-02-04 08:40:00,46.4,45.9,30.24,NNE,22,0.0,1.1,98,0.00,,---,0.00,VWS V14.01,2013-02-04 16:40:00,
2013-02-04 08:45:00,46.6,46.0,30.24,ESE,112,1.6,1.6,98,0.00,,---,0.00,VWS V14.01,2013-02-04 16:45:00,
2013-02-04 08:50:00,46.6,46.0,30.24,NE,45,0.0,0.0,98,0.00,,---,0.00,VWS V14.01,2013-02-04 16:50:00,
2013-02-04 08:55:00,46.6,46.0,30.21,ENE,68,0.0,0.0,98,0.00,,---,0.00,VWS V14.01,2013-02-04 16:55:00,
2013-02-04 09:00:00,46.8,46.2,30.21,ENE,68,0.0,0.0,98,0.00,,---,0.00,VWS V14.01,2013-02-04 17:00:00,
2013-02-04 09:05:00,46.8,46.2,30.21,SSW,202,0.0,0.0,98,0.00,,---,0.00,VWS V14.01,2013-02-04 17:05:00,
2013-02-04 09:10:00,46.8,46.2,30.24,SW,225,2.5,2.5,98,0.00,,---,0.00,VWS V14.01,2013-02-04 17:10:00,
2013-02-04 09:15:00,46.6,46.0,30.24,WSW,248,0.9,1.3,98,0.00,,---,0.00,VWS V14.01,2013-02-04 17:15:00,
2013-02-04 09:20:00,46.8,46.2,30.24,WSW,248,0.0,0.0,98,0.00,,---,0.00,VWS V14.01,2013-02-04 17:20:00,
2013-02-04 09:25:00,46.8,46.2,30.24,NW,315,1.1,2.5,98,0.00,,---,0.00,VWS V14.01,2013-02-04 17:25:00,
2013-02-04 09:30:00,46.9,46.4,30.24,NNE,22,2.5,2.5,98,0.00,,---,0.00,VWS V14.01,2013-02-04 17:30:00,
2013-02-04 09:35:00,47.1,46.6,30.24,North,0,0.0,0.0,98,0.00,,---,0.00,VWS V14.01,2013-02-04 17:35:00,
2013-02-04 09:40:00,47.1,46.6,30.24,NNE,22,0.0,0.0,98,0.00,,---,0.00,VWS V14.01,2013-02-04 17:40:00,
2013-02-04 09:46:00,47.5,47.0,30.24,ENE,68,2.0,2.7,98,0.00,,---,0.00,VWS V14.01,2013-02-04 17:46:00,
2013-02-04 09:51:00,47.5,47.0,30.24,ESE,112,0.0,1.3,98,0.00,,---,0.00,VWS V14.01,2013-02-04 17:51:00,
2013-02-04 09:56:00,47.8,47.3,30.24,ENE,68,0.0,0.0,98,0.00,,---,0.00,VWS V14.01,2013-02-04 17:56:00,
2013-02-04 10:01:00,48.0,47.5,30.24,ENE,68,0.0,0.0,98,0.00,,---,0.00,VWS V14.01,2013-02-04 18:01:00,
2013-02-04 10:06:00,48.2,47.7,30.24,ENE,68,0.0,0.0,98,0.00,,---,0.00,VWS V14.01,2013-02-04 18:06:00,
2013-02-04 10:11:00,48.4,47.8,30.24,ENE,68,1.3,1.3,98,0.00,,---,0.00,VWS V14.01,2013-02-04 18:11:00,
2013-02-04 10:16:00,48.7,48.2,30.24,ESE,112,2.9,2.9,98,0.00,,---,0.00,VWS V14.01,2013-02-04 18:16:00,
2013-02-04 10:21:00,48.9,48.4,30.24,East,90,0.0,1.3,98,0.00,,---,0.00,VWS V14.01,2013-02-04 18:21:00,
2013-02-04 10:26:00,49.1,48.6,30.24,NNW,338,0.0,0.0,98,0.00,,---,0.00,VWS V14.01,2013-02-04 18:26:00,
2013-02-04 10:31:00,49.5,48.9,30.24,ESE,112,0.0,0.0,98,0.00,,---,0.00,VWS V14.01,2013-02-04 18:31:00,
2013-02-04 10:36:00,49.8,49.3,30.24,SSE,158,0.0,0.9,98,0.00,,---,0.00,VWS V14.01,2013-02-04 18:36:00,
2013-02-04 10:41:00,50.2,49.6,30.21,SW,225,1.6,2.9,98,0.00,,---,0.00,VWS V14.01,2013-02-04 18:41:00,
2013-02-04 10:46:00,50.4,49.8,30.21,ENE,68,2.2,3.6,98,0.00,,---,0.00,VWS V14.01,2013-02-04 18:46:00,
2013-02-04 10:51:00,50.4,49.5,30.21,ENE,68,1.1,4.3,97,0.00,,---,0.00,VWS V14.01,2013-02-04 18:51:00,
2013-02-04 10:56:00,50.7,49.6,30.24,WSW,248,0.0,0.0,96,0.00,,---,0.00,VWS V14.01,2013-02-04 18:56:00,
2013-02-04 11:01:00,51.1,49.7,30.24,West,270,0.0,0.0,95,0.00,,---,0.00,VWS V14.01,2013-02-04 19:01:00,
2013-02-04 11:06:00,51.6,50.2,30.24,NNE,22,0.0,1.6,95,0.00,,---,0.00,VWS V14.01,2013-02-04 19:06:00,
2013-02-04 11:11:00,51.8,50.1,30.21,North,0,2.0,2.5,94,0.00,,---,0.00,VWS V14.01,2013-02-04 19:11:00,
2013-02-04 11:16:00,52.2,49.9,30.21,NE,45,1.3,1.6,92,0.00,,---,0.00,VWS V14.01,2013-02-04 19:16:00,
2013-02-04 11:22:00,52.7,50.2,30.21,NW,315,0.0,0.0,91,0.00,,---,0.00,VWS V14.01,2013-02-04 19:22:00,
2013-02-04 11:27:00,52.9,49.7,30.21,North,0,1.1,2.7,89,0.00,,---,0.00,VWS V14.01,2013-02-04 19:27:00,
2013-02-04 11:32:00,53.4,50.0,30.21,NW,315,0.0,0.0,88,0.00,,---,0.00,VWS V14.01,2013-02-04 19:32:00,
2013-02-04 11:38:00,54.3,50.5,30.24,WNW,292,0.0,0.0,87,0.00,,---,0.00,VWS V14.01,2013-02-04 19:38:00,
2013-02-04 11:43:00,55.0,50.3,30.24,NW,315,2.7,2.7,84,0.00,,---,0.00,VWS V14.01,2013-02-04 19:43:00,
2013-02-04 11:49:00,56.1,51.0,30.24,NNE,22,0.0,0.0,83,0.00,,---,0.00,VWS V14.01,2013-02-04 19:49:00,
2013-02-04 11:54:00,57.2,51.8,30.24,NNW,338,2.2,2.2,82,0.00,,---,0.00,VWS V14.01,2013-02-04 19:54:00,
2013-02-04 11:59:00,57.6,51.1,30.24,West,270,0.9,2.5,79,0.00,,---,0.00,VWS V14.01,2013-02-04 19:59:00,
2013-02-04 12:04:00,57.4,48.8,30.24,WSW,248,1.3,3.4,73,0.00,,---,0.00,VWS V14.01,2013-02-04 20:04:00,
2013-02-04 12:10:00,57.9,49.3,30.21,North,0,3.1,3.1,73,0.00,,---,0.00,VWS V14.01,2013-02-04 20:10:00,
2013-02-04 12:15:00,59.4,50.3,30.21,North,0,1.1,2.2,72,0.00,,---,0.00,VWS V14.01,2013-02-04 20:15:00,
2013-02-04 12:20:00,61.3,51.1,30.21,WSW,248,0.0,2.2,69,0.00,,---,0.00,VWS V14.01,2013-02-04 20:20:00,
2013-02-04 12:25:00,63.0,51.8,30.21,SSW,202,2.2,2.2,67,0.00,,---,0.00,VWS V14.01,2013-02-04 20:25:00,
2013-02-04 12:31:00,63.1,48.6,30.21,SSW,202,1.3,3.6,59,0.00,,---,0.00,VWS V14.01,2013-02-04 20:31:00,
2013-02-04 12:36:00,63.1,49.0,30.21,SSW,202,1.3,1.3,60,0.00,,---,0.00,VWS V14.01,2013-02-04 20:36:00,
2013-02-04 12:41:00,64.2,48.7,30.21,SSW,202,0.9,1.6,57,0.00,,---,0.00,VWS V14.01,2013-02-04 20:41:00,
2013-02-04 12:46:00,64.4,47.4,30.21,SSE,158,3.1,3.1,54,0.00,,---,0.00,VWS V14.01,2013-02-04 20:46:00,
2013-02-04 12:52:00,63.9,45.9,30.18,SSE,158,2.2,2.9,52,0.00,,---,0.00,VWS V14.01,2013-02-04 20:52:00,
2013-02-04 12:57:00,64.9,46.9,30.18,WSW,248,2.7,2.9,52,0.00,,---,0.00,VWS V14.01,2013-02-04 20:57:00,
2013-02-04 13:03:00,65.3,46.7,30.18,ENE,68,3.1,3.1,51,0.00,,---,0.00,VWS V14.01,2013-02-04 21:03:00,
2013-02-04 13:08:00,65.8,47.7,30.18,WSW,248,1.6,2.5,52,0.00,,---,0.00,VWS V14.01,2013-02-04 21:08:00,
2013-02-04 13:13:00,66.7,46.5,30.18,NNE,22,2.5,2.9,48,0.00,,---,0.00,VWS V14.01,2013-02-04 21:13:00,
2013-02-04 13:18:00,66.6,45.7,30.18,SW,225,3.8,3.8,47,0.00,,---,0.00,VWS V14.01,2013-02-04 21:18:00,
2013-02-04 13:23:00,65.8,45.6,30.18,SSW,202,2.2,2.9,48,0.00,,---,0.00,VWS V14.01,2013-02-04 21:23:00,
2013-02-04 13:28:00,65.8,45.6,30.18,SSW,202,2.2,3.1,48,0.00,,---,0.00,VWS V14.01,2013-02-04 21:28:00,
2013-02-04 13:34:00,66.0,45.8,30.18,SSW,202,2.9,3.4,48,0.00,,---,0.00,VWS V14.01,2013-02-04 21:34:00,
2013-02-04 13:39:00,66.6,46.3,30.18,SSE,158,1.1,1.1,48,0.00,,---,0.00,VWS V14.01,2013-02-04 21:39:00,
2013-02-04 13:44:00,67.5,46.5,30.18,SSW,202,2.0,2.9,47,0.00,,---,0.00,VWS V14.01,2013-02-04 21:44:00,
2013-02-04 13:49:00,68.2,47.2,30.18,SSW,202,0.0,2.0,47,0.00,,---,0.00,VWS V14.01,2013-02-04 21:49:00,
2013-02-04 13:55:00,68.4,46.2,30.18,SSW,202,2.9,3.4,45,0.00,,---,0.00,VWS V14.01,2013-02-04 21:55:00,
2013-02-04 14:00:00,68.4,46.2,30.18,SW,225,2.9,2.9,45,0.00,,---,0.00,VWS V14.01,2013-02-04 22:00:00,
2013-02-04 14:05:00,67.6,45.0,30.18,WSW,248,2.9,2.9,44,0.00,,---,0.00,VWS V14.01,2013-02-04 22:05:00,
2013-02-04 14:11:00,68.4,46.2,30.15,WSW,248,0.0,1.6,45,0.00,,---,0.00,VWS V14.01,2013-02-04 22:11:00,
2013-02-04 14:17:00,67.8,45.1,30.15,SW,225,0.9,3.4,44,0.00,,---,0.00,VWS V14.01,2013-02-04 22:17:00,
2013-02-04 14:23:00,67.1,45.1,30.15,West,270,4.0,4.7,45,0.00,,---,0.00,VWS V14.01,2013-02-04 22:23:00,
2013-02-04 14:28:00,66.6,44.0,30.15,SSW,202,2.7,4.5,44,0.00,,---,0.00,VWS V14.01,2013-02-04 22:28:00,
2013-02-04 14:33:00,66.7,44.8,30.15,SSW,202,2.7,3.8,45,0.00,,---,0.00,VWS V14.01,2013-02-04 22:33:00,
2013-02-04 14:38:00,65.7,43.8,30.15,SW,225,3.6,4.7,45,0.00,,---,0.00,VWS V14.01,2013-02-04 22:38:00,
2013-02-04 14:44:00,65.7,44.9,30.15,WSW,248,2.9,2.9,47,0.00,,---,0.00,VWS V14.01,2013-02-04 22:44:00,
2013-02-04 14:49:00,66.2,44.8,30.15,SSW,202,2.9,4.3,46,0.00,,---,0.00,VWS V14.01,2013-02-04 22:49:00,
2013-02-04 14:55:00,67.3,46.4,30.12,SW,225,2.5,2.5,47,0.00,,---,0.00,VWS V14.01,2013-02-04 22:55:00,
2013-02-04 15:00:00,66.6,44.6,30.12,WSW,248,2.0,2.5,45,0.00,,---,0.00,VWS V14.01,2013-02-04 23:00:00,
2013-02-04 15:05:00,67.3,45.8,30.12,SSW,202,0.0,2.7,46,0.00,,---,0.00,VWS V14.01,2013-02-04 23:05:00,
2013-02-04 15:11:00,68.0,45.9,30.15,SE,135,2.9,3.1,45,0.00,,---,0.00,VWS V14.01,2013-02-04 23:11:00,
2013-02-04 15:16:00,68.2,45.5,30.15,West,270,0.0,1.3,44,0.00,,---,0.00,VWS V14.01,2013-02-04 23:16:00,
2013-02-04 15:22:00,69.3,46.4,30.15,WSW,248,1.1,2.5,44,0.00,,---,0.00,VWS V14.01,2013-02-04 23:22:00,
2013-02-04 15:27:00,67.5,44.2,30.15,SSE,158,2.9,5.8,43,0.00,,---,0.00,VWS V14.01,2013-02-04 23:27:00,
2013-02-04 15:33:00,66.2,43.7,30.15,WSW,248,0.9,2.5,44,0.00,,---,0.00,VWS V14.01,2013-02-04 23:33:00,
2013-02-04 15:38:00,64.8,43.0,30.15,South,180,2.7,3.6,45,0.00,,---,0.00,VWS V14.01,2013-02-04 23:38:00,
2013-02-04 15:44:00,64.0,43.4,30.15,WSW,248,3.6,3.6,47,0.00,,---,0.00,VWS V14.01,2013-02-04 23:44:00,
2013-02-04 15:49:00,62.6,43.2,30.15,West,270,2.0,3.1,49,0.00,,---,0.00,VWS V14.01,2013-02-04 23:49:00,
2013-02-04 15:54:00,62.1,43.7,30.15,WSW,248,1.1,1.1,51,0.00,,---,0.00,VWS V14.01,2013-02-04 23:54:00,
2013-02-04 15:59:00,61.5,43.8,30.15,West,270,2.5,2.5,52,0.00,,---,0.00,VWS V14.01,2013-02-04 23:59:00,
2013-02-04 16:05:00,60.1,43.4,30.15,SSW,202,0.0,2.7,54,0.00,,---,0.00,VWS V14.01,2013-02-05 00:05:00,
2013-02-04 16:10:00,59.7,44.0,30.15,SW,225,2.7,2.7,56,0.00,,---,0.00,VWS V14.01,2013-02-05 00:10:00,
2013-02-04 16:16:00,60.3,45.4,30.15,WNW,292,0.0,0.0,58,0.00,,---,0.00,VWS V14.01,2013-02-05 00:16:00,
2013-02-04 16:22:00,61.0,45.7,30.15,NNE,22,0.0,0.0,57,0.00,,---,0.00,VWS V14.01,2013-02-05 00:22:00,
2013-02-04 16:27:00,61.5,45.7,30.15,WSW,248,1.1,1.1,56,0.00,,---,0.00,VWS V14.01,2013-02-05 00:27:00,
2013-02-04 16:33:00,61.7,45.9,30.15,WNW,292,2.2,2.2,56,0.00,,---,0.00,VWS V14.01,2013-02-05 00:33:00,
2013-02-04 16:38:00,61.3,44.6,30.15,SW,225,0.0,3.1,54,0.00,,---,0.00,VWS V14.01,2013-02-05 00:38:00,
2013-02-04 16:43:00,60.8,44.5,30.15,North,0,2.0,2.0,55,0.00,,---,0.00,VWS V14.01,2013-02-05 00:43:00,
2013-02-04 16:48:00,60.6,44.8,30.15,WSW,248,0.0,0.0,56,0.00,,---,0.00,VWS V14.01,2013-02-05 00:48:00,
2013-02-04 16:54:00,59.7,44.0,30.15,WSW,248,0.0,0.0,56,0.00,,---,0.00,VWS V14.01,2013-02-05 00:54:00,
2013-02-04 17:00:00,58.8,43.6,30.15,NW,315,0.0,1.1,57,0.00,,---,0.00,VWS V14.01,2013-02-05 01:00:00,
2013-02-04 17:05:00,57.6,42.9,30.15,NW,315,0.0,1.3,58,0.00,,---,0.00,VWS V14.01,2013-02-05 01:05:00,
2013-02-04 17:11:00,57.2,42.6,30.12,NW,315,0.0,0.0,58,0.00,,---,0.00,VWS V14.01,2013-02-05 01:11:00,
2013-02-04 17:16:00,55.8,42.5,30.12,NNW,338,0.0,0.0,61,0.00,,---,0.00,VWS V14.01,2013-02-05 01:16:00,
2013-02-04 17:22:00,54.3,42.0,30.15,NNW,338,0.0,0.0,63,0.00,,---,0.00,VWS V14.01,2013-02-05 01:22:00,
2013-02-04 17:28:00,53.2,41.8,30.15,NW,315,0.0,0.0,65,0.00,,---,0.00,VWS V14.01,2013-02-05 01:28:00,
2013-02-04 17:33:00,52.7,42.1,30.15,WNW,292,0.0,0.0,67,0.00,,---,0.00,VWS V14.01,2013-02-05 01:33:00,
2013-02-04 17:39:00,51.6,41.4,30.12,NNW,338,0.0,0.0,68,0.00,,---,0.00,VWS V14.01,2013-02-05 01:39:00,
2013-02-04 17:44:00,50.9,41.1,30.12,NNW,338,1.1,2.0,69,0.00,,---,0.00,VWS V14.01,2013-02-05 01:44:00,
2013-02-04 17:50:00,50.4,41.3,30.12,NNW,338,0.0,0.0,71,0.00,,---,0.00,VWS V14.01,2013-02-05 01:50:00,
2013-02-04 17:55:00,49.8,41.2,30.12,NNW,338,0.0,0.0,72,0.00,,---,0.00,VWS V14.01,2013-02-05 01:55:00,
2013-02-04 18:00:00,49.1,40.8,30.12,NNW,338,0.0,0.0,73,0.00,,---,0.00,VWS V14.01,2013-02-05 02:00:00,
2013-02-04 18:06:00,48.6,40.7,30.12,NNW,338,0.0,0.0,74,0.00,,---,0.00,VWS V14.01,2013-02-05 02:06:00,
2013-02-04 18:11:00,48.0,40.5,30.12,NNW,338,0.0,0.0,75,0.00,,---,0.00,VWS V14.01,2013-02-05 02:11:00,
2013-02-04 18:17:00,47.7,40.5,30.12,NNW,338,0.0,0.0,76,0.00,,---,0.00,VWS V14.01,2013-02-05 02:17:00,
2013-02-04 18:22:00,47.3,40.5,30.15,NNW,338,0.0,0.0,77,0.00,,---,0.00,VWS V14.01,2013-02-05 02:22:00,
2013-02-04 18:28:00,47.1,40.6,30.15,NNW,338,0.0,0.0,78,0.00,,---,0.00,VWS V14.01,2013-02-05 02:28:00,
2013-02-04 18:33:00,46.9,40.8,30.15,NNW,338,0.0,0.0,79,0.00,,---,0.00,VWS V14.01,2013-02-05 02:33:00,
2013-02-04 18:39:00,46.8,40.9,30.12,North,0,0.0,0.0,80,0.00,,---,0.00,VWS V14.01,2013-02-05 02:39:00,
2013-02-04 18:44:00,46.6,41.1,30.12,North,0,0.0,0.0,81,0.00,,---,0.00,VWS V14.01,2013-02-05 02:44:00,
2013-02-04 18:49:00,46.6,41.1,30.12,North,0,0.0,0.0,81,0.00,,---,0.00,VWS V14.01,2013-02-05 02:49:00,
2013-02-04 18:55:00,46.2,40.7,30.12,NNW,338,0.0,0.0,81,0.00,,---,0.00,VWS V14.01,2013-02-05 02:55:00,
2013-02-04 19:00:00,46.0,40.9,30.12,NNW,338,0.0,0.0,82,0.00,,---,0.00,VWS V14.01,2013-02-05 03:00:00,
2013-02-04 19:06:00,45.9,41.0,30.12,NNW,338,0.0,0.0,83,0.00,,---,0.00,VWS V14.01,2013-02-05 03:06:00,
2013-02-04 19:11:00,45.9,41.0,30.15,NNW,338,0.0,0.0,83,0.00,,---,0.00,VWS V14.01,2013-02-05 03:11:00,
2013-02-04 19:17:00,45.5,41.0,30.15,North,0,0.0,0.0,84,0.00,,---,0.00,VWS V14.01,2013-02-05 03:17:00,
2013-02-04 19:22:00,45.5,41.3,30.15,North,0,0.0,0.0,85,0.00,,---,0.00,VWS V14.01,2013-02-05 03:22:00,
2013-02-04 19:28:00,45.3,41.1,30.15,North,0,0.0,0.0,85,0.00,,---,0.00,VWS V14.01,2013-02-05 03:28:00,
2013-02-04 19:33:00,45.1,40.9,30.15,North,0,0.0,0.0,85,0.00,,---,0.00,VWS V14.01,2013-02-05 03:33:00,
2013-02-04 19:38:00,45.0,41.0,30.15,North,0,0.0,0.0,86,0.00,,---,0.00,VWS V14.01,2013-02-05 03:38:00,
2013-02-04 19:43:00,45.0,41.0,30.15,NNW,338,0.0,0.0,86,0.00,,---,0.00,VWS V14.01,2013-02-05 03:43:00,
2013-02-04 19:49:00,44.6,41.0,30.15,NNW,338,0.0,0.0,87,0.00,,---,0.00,VWS V14.01,2013-02-05 03:49:00,
2013-02-04 19:54:00,44.6,41.0,30.15,NNW,338,0.0,0.0,87,0.00,,---,0.00,VWS V14.01,2013-02-05 03:54:00,
2013-02-04 20:00:00,44.2,40.6,30.15,NNW,338,0.0,0.0,87,0.00,,---,0.00,VWS V14.01,2013-02-05 04:00:00,
2013-02-04 20:06:00,44.1,40.7,30.15,NNW,338,0.0,0.0,88,0.00,,---,0.00,VWS V14.01,2013-02-05 04:06:00,
2013-02-04 20:11:00,43.9,40.6,30.15,NNW,338,0.0,0.0,88,0.00,,---,0.00,VWS V14.01,2013-02-05 04:11:00,
2013-02-04 20:17:00,44.1,41.0,30.15,NNW,338,0.0,0.0,89,0.00,,---,0.00,VWS V14.01,2013-02-05 04:17:00,
2013-02-04 20:23:00,44.2,41.5,30.15,NNW,338,0.0,0.0,90,0.00,,---,0.00,VWS V14.01,2013-02-05 04:23:00,
2013-02-04 20:28:00,44.6,41.6,30.15,NNW,338,0.0,0.0,89,0.00,,---,0.00,VWS V14.01,2013-02-05 04:28:00,
2013-02-04 20:33:00,44.8,42.0,30.15,NNW,338,0.0,0.0,90,0.00,,---,0.00,VWS V14.01,2013-02-05 04:33:00,
2013-02-04 20:38:00,45.1,42.4,30.15,North,0,0.0,0.0,90,0.00,,---,0.00,VWS V14.01,2013-02-05 04:38:00,
2013-02-04 20:44:00,45.7,43.2,30.15,NNE,22,0.0,0.0,91,0.00,,---,0.00,VWS V14.01,2013-02-05 04:44:00,
2013-02-04 20:49:00,45.9,43.4,30.15,NNE,22,0.0,0.0,91,0.00,,---,0.00,VWS V14.01,2013-02-05 04:49:00,
2013-02-04 20:55:00,46.0,43.6,30.15,NNE,22,0.0,0.0,91,0.00,,---,0.00,VWS V14.01,2013-02-05 04:55:00,
2013-02-04 21:00:00,46.2,43.7,30.15,NNE,22,0.0,0.0,91,0.00,,---,0.00,VWS V14.01,2013-02-05 05:00:00,
2013-02-04 21:02:00,46.2,43.7,30.15,SSE,158,0.0,0.0,91,0.00,,---,0.00,VWS V14.01,2013-02-05 05:02:00,
2013-02-04 21:03:00,46.2,43.7,30.15,SSE,158,0.0,0.0,91,0.00,,---,0.00,VWS V14.01,2013-02-05 05:03:00,
2013-02-04 21:04:00,46.2,43.7,30.15,SSE,158,0.0,0.0,91,0.00,,---,0.00,VWS V14.01,2013-02-05 05:04:00,
2013-02-04 21:09:00,46.4,43.9,30.15,West,270,0.0,0.0,91,0.00,,---,0.00,VWS V14.01,2013-02-05 05:09:00,
2013-02-04 21:15:00,46.6,44.1,30.15,West,270,0.0,0.0,91,0.00,,---,0.00,VWS V14.01,2013-02-05 05:15:00,
2013-02-04 21:20:00,46.6,44.1,30.15,SW,225,0.0,0.0,91,0.00,,---,0.00,VWS V14.01,2013-02-05 05:20:00,
2013-02-04 21:26:00,46.8,44.3,30.18,WSW,248,0.0,0.0,91,0.00,,---,0.00,VWS V14.01,2013-02-05 05:26:00,
2013-02-04 21:31:00,46.8,44.3,30.18,WNW,292,0.0,0.0,91,0.00,,---,0.00,VWS V14.01,2013-02-05 05:31:00,
2013-02-04 21:37:00,46.8,44.6,30.18,WNW,292,0.9,2.0,92,0.00,,---,0.00,VWS V14.01,2013-02-05 05:37:00,
2013-02-04 21:42:00,46.9,44.7,30.18,NNE,22,1.3,2.9,92,0.00,,---,0.00,VWS V14.01,2013-02-05 05:42:00,
2013-02-04 21:48:00,46.9,45.0,30.18,NNW,338,3.6,3.6,93,0.00,,---,0.00,VWS V14.01,2013-02-05 05:48:00,
2013-02-04 21:53:00,46.9,45.0,30.18,West,270,0.0,0.0,93,0.00,,---,0.00,VWS V14.01,2013-02-05 05:53:00,
2013-02-04 21:59:00,47.1,45.2,30.18,WSW,248,0.0,0.0,93,0.00,,---,0.00,VWS V14.01,2013-02-05 05:59:00,
2013-02-04 22:05:00,47.1,45.2,30.18,WSW,248,1.3,2.5,93,0.00,,---,0.00,VWS V14.01,2013-02-05 06:05:00,
2013-02-04 22:10:00,47.1,45.2,30.15,SSW,202,2.5,2.5,93,0.00,,---,0.00,VWS V14.01,2013-02-05 06:10:00,
2013-02-04 22:16:00,47.1,45.2,30.15,SSW,202,0.0,2.7,93,0.00,,---,0.00,VWS V14.01,2013-02-05 06:16:00,
2013-02-04 22:21:00,47.1,45.5,30.15,SSW,202,0.9,2.5,94,0.00,,---,0.00,VWS V14.01,2013-02-05 06:21:00,
2013-02-04 22:27:00,46.9,45.3,30.15,WSW,248,2.0,2.0,94,0.00,,---,0.00,VWS V14.01,2013-02-05 06:27:00,
2013-02-04 22:33:00,47.1,45.5,30.15,West,270,0.0,0.0,94,0.00,,---,0.00,VWS V14.01,2013-02-05 06:33:00,
2013-02-04 22:38:00,47.1,45.5,30.18,WNW,292,0.0,0.0,94,0.00,,---,0.00,VWS V14.01,2013-02-05 06:38:00,
2013-02-04 22:44:00,47.1,45.5,30.18,WNW,292,1.1,1.1,94,0.00,,---,0.00,VWS V14.01,2013-02-05 06:44:00,
2013-02-04 22:50:00,47.1,45.5,30.18,WSW,248,1.3,1.3,94,0.00,,---,0.00,VWS V14.01,2013-02-05 06:50:00,
2013-02-04 22:55:00,47.1,45.5,30.18,WSW,248,0.0,2.0,94,0.00,,---,0.00,VWS V14.01,2013-02-05 06:55:00,
2013-02-04 23:01:00,46.9,45.3,30.18,WSW,248,0.0,0.0,94,0.00,,---,0.00,VWS V14.01,2013-02-05 07:01:00,
2013-02-04 23:06:00,46.9,45.3,30.18,WSW,248,0.0,0.0,94,0.00,,---,0.00,VWS V14.01,2013-02-05 07:06:00,
2013-02-04 23:12:00,46.9,45.3,30.18,South,180,2.2,2.2,94,0.00,,---,0.00,VWS V14.01,2013-02-05 07:12:00,
2013-02-04 23:17:00,46.9,45.6,30.18,WSW,248,0.0,1.3,95,0.00,,---,0.00,VWS V14.01,2013-02-05 07:17:00,
2013-02-04 23:23:00,46.9,45.3,30.18,West,270,0.0,0.0,94,0.00,,---,0.00,VWS V14.01,2013-02-05 07:23:00,
2013-02-04 23:28:00,46.9,45.3,30.18,SSW,202,1.6,1.6,94,0.00,,---,0.00,VWS V14.01,2013-02-05 07:28:00,
2013-02-04 23:33:00,46.9,45.3,30.18,SSW,202,0.0,2.0,94,0.00,,---,0.00,VWS V14.01,2013-02-05 07:33:00,
2013-02-04 23:38:00,46.9,45.3,30.18,WSW,248,1.1,1.6,94,0.00,,---,0.00,VWS V14.01,2013-02-05 07:38:00,
2013-02-04 23:44:00,46.9,45.3,30.18,West,270,2.9,2.9,94,0.00,,---,0.00,VWS V14.01,2013-02-05 07:44:00,
2013-02-04 23:50:00,46.9,45.3,30.18,SSW,202,1.3,1.3,94,0.00,,---,0.00,VWS V14.01,2013-02-05 07:50:00,
2013-02-04 23:55:00,46.9,45.3,30.21,WSW,248,0.0,0.0,94,0.00,,---,0.00,VWS V14.01,2013-02-05 07:55:00,